Regional Weather Roundup
Issued by NWS

Home | Current Version | Previous Version | Text Only | Print | Product List | Glossary Off
Versions: 1 2 3 4 5 6 7 8 9 10 11 12 13 14 15 16 17 18 19 20 21 22 23 24 25 26 27 28 29 30 31 32 33 34 35 36 37 38 39 40 41 42 43 44 45 46 47 48 49 50

000
ASUS45 KSLC 031910
RWRUT

UTAH REGIONAL WEATHER ROUNDUP
NATIONAL WEATHER SERVICE SALT LAKE CITY UT
100 PM MDT FRI JUL 03 2015

UTZ001>011-023>025-032000-

NORTHERN UTAH

CITY           SKY/WX    TMP DP  RH WIND       PRES   REMARKS
BRIGHAM CITY   SUNNY     91  40  16 S6        30.02F
HILL AFB       SUNNY     91  42  18 W5        30.06F
LOGAN          SUNNY     92  44  19 CALM      30.03F
OGDEN          SUNNY     92  40  16 VRB3      30.03F
PROVO AIRPORT  MOSUNNY   88  50  27 SW5       30.05F
SALT LAKE CITY MOSUNNY   95  45  17 NW8       30.00F HX  91
VERNAL         SUNNY     89  41  18 CALM      30.08F
WENDOVER       MOSUNNY   95  46  18 SE8       30.02F HX  91
HEBER CITY     SUNNY     88  37  16 CALM      30.12F
WEST JORDAN    SUNNY     91  45  19 NE5       30.04F

$$

UTZ012>022-026-027-032000-

SOUTHERN/CENTRAL UTAH

CITY           SKY/WX    TMP DP  RH WIND       PRES   REMARKS
BLANDING       SUNNY     82  52  35 S6        30.25F
BRYCE CANYON   PTSUNNY   78  51  38 SW8       30.31F
CEDAR CITY     CLOUDY    88  46  23 VRB7      30.14F
DELTA          SUNNY     92  39  15 W6        30.06F
HANKSVILLE     PTSUNNY   95  41  15 S9        30.03F HX  91
MILFORD        CLOUDY    84  51  31 S7        30.10F
MOAB/CYNLANDS  SUNNY     95  46  18 SW6       29.99F HX  91
PRICE          MOSUNNY   91  39  16 MISG      30.11F
ST GEORGE      CLEAR     99  54  22 W5        29.94F HX  96
KANAB          MOSUNNY   91  54  27 SW7       30.13F

$$

REGIONAL REPORTS     COLORADO/ARIZONA

CITY           SKY/WX    TMP DP  RH WIND       PRES   REMARKS
CRAIG, CO      SUNNY     88  41  19 VRB3      30.16F
GRAND JUNCTION SUNNY     91  49  23 VRB5      30.04F
RIFLE          MOSUNNY   90  46  21 NW8       30.09F
MONTROSE       SUNNY     90  48  23 N9        30.13F
CORTEZ         SUNNY     84  52  33 SW8       30.19F
PAGE, AZ       CLOUDY    86  51  29 NW5       30.04F
GRAND CANYON   MOSUNNY   83  53  35 SW9       30.24
KINGMAN        MOSUNNY   97  51  21 SW21G28   30.02F HX  94
FLAGSTAFF      PTSUNNY   75  54  47 SW8G17    30.28F

$$

REGIONAL REPORTS    NEVADA/IDAHO/WYOMING

CITY           SKY/WX    TMP DP  RH WIND       PRES   REMARKS
LAS VEGAS, NV  PTSUNNY  102  51  18 S10       29.84F HX  99
ELY            MOSUNNY   88  42  20 CALM      30.19F
ELKO           MOSUNNY   87  53  31 S9        30.10F
POCATELLO, ID  SUNNY     91  47  21 W13       30.03F
BURLEY         SUNNY     90  51  26 W9        29.99F
EVANSTON, WY   SUNNY     83  35  18 SW5       30.25F
ROCK SPRINGS   SUNNY     82  43  25 VRB3      30.22F
KEMMERER       MOSUNNY  N/A N/A N/A W8        30.26F

$$


USA.gov is the U.S. government's official web portal to all federal, state and local government web resources and services.